Fort Stockton, TX

12:03 PM CDT on May 24, 2017 (GMT -0500)
Fort Stockton-Pecos County

Weather History for KFST - December, 2014

Change the Weather History Date:

Wednesday, December 17, 2014

  Actual Average Record
Temperature  
Mean Temperature 53 °F -  
Max Temperature 64 °F 58 °F 82 °F (2006)
Min Temperature 42 °F 33 °F 19 °F (1996)
Degree Days  
Heating Degree Days 12    
Growing Degree Days 3 (Base 50)    
Moisture  
Dew Point 35 °F    
Average Humidity 56    
Maximum Humidity 74    
Minimum Humidity 32    
Precipitation  
Precipitation 0.00 in - - ()
Sea Level Pressure  
Sea Level Pressure 29.98 in    
Wind  
Wind Speed 10 mph (South)    
Max Wind Speed 18 mph    
Max Gust Speed 25 mph    
Visibility 10 miles    
Events      
Averages and records for this station are not official NWS values.
T = Trace of Precipitation, MM = Missing Value Source: NWS Daily Summary

Daily Weather History Graph

Daily Weather History Graph

Search for Another Location

Airport or City:

Trip Planner

Search our weather history database for the weather conditions in past years. The results will help you decide how hot, cold, wet, or windy it might be!

Date:

Astronomy

Dec. 17, 2014 Rise Set
Actual Time 7:43 AM CST 5:52 PM CST
Civil Twilight 7:16 AM CST 6:19 PM CST
Nautical Twilight 6:46 AM CST 6:49 PM CST
Astronomical Twilight 6:17 AM CST 7:18 PM CST
Moon 3:13 AM CST (12/17) 2:44 PM CST (12/17)
Length of Visible Light 11h 02m
Length of Day
10h 08m
Waning Crescent, 21% of the Moon is Illuminated
Dec 17
Waning Crescent
Dec 21
New
Dec 28
First Quarter
Jan 4
Full
Jan 13
Last Quarter

Hourly Weather History & Observations

Time (CST) Temp. Windchill Dew Point Humidity Pressure Visibility Wind Dir Wind Speed Gust Speed Precip Events Conditions
12:53 AM 48.0 °F - 33.1 °F 56% 30.05 in 10.0 mi SSE 18.4 mph 25.3 mph N/A   Clear
1:53 AM 48.0 °F - 34.0 °F 58% 30.02 in 10.0 mi SSE 11.5 mph - N/A   Clear
2:53 AM 48.0 °F - 36.0 °F 63% 29.98 in 10.0 mi SSE 12.7 mph - N/A   Clear
3:53 AM 48.0 °F - 37.0 °F 66% 29.96 in 10.0 mi SSE 11.5 mph 20.7 mph N/A   Clear
4:53 AM 48.0 °F - 37.9 °F 68% 29.97 in 10.0 mi SE 9.2 mph - N/A   Clear
5:53 AM 46.9 °F - 37.9 °F 71% 29.96 in 10.0 mi SSE 17.3 mph 23.0 mph N/A   Clear
6:53 AM 46.0 °F 41.9 °F 37.0 °F 71% 29.99 in 10.0 mi South 8.1 mph - N/A   Clear
7:53 AM 44.1 °F 38.6 °F 36.0 °F 73% 30.01 in 10.0 mi WSW 10.4 mph - N/A   Clear
8:53 AM 42.1 °F 40.2 °F 33.1 °F 70% 30.01 in 10.0 mi West 3.5 mph - N/A   Clear
9:53 AM 46.0 °F 43.9 °F 34.0 °F 63% 30.02 in 10.0 mi WNW 4.6 mph - N/A   Clear
10:53 AM 48.0 °F - 34.0 °F 58% 30.03 in 10.0 mi NW 4.6 mph - N/A   Clear
11:53 AM 51.1 °F - 35.1 °F 54% 30.01 in 10.0 mi North - - N/A   Clear
12:53 PM 55.9 °F - 37.0 °F 49% 29.96 in 10.0 mi Calm Calm - N/A   Clear
1:53 PM 61.0 °F - 39.9 °F 46% 29.91 in 10.0 mi Calm Calm - N/A   Clear
2:53 PM 64.0 °F - 37.9 °F 38% 29.89 in 10.0 mi North 3.5 mph - N/A   Clear
3:53 PM 64.9 °F - 36.0 °F 34% 29.89 in 10.0 mi Variable 4.6 mph - N/A   Clear
4:53 PM 64.9 °F - 34.0 °F 32% 29.90 in 10.0 mi Variable 3.5 mph - N/A   Clear
5:53 PM 57.9 °F - 35.1 °F 42% 29.94 in 10.0 mi ENE 5.8 mph - N/A   Clear
6:53 PM 57.0 °F - 33.1 °F 40% 29.96 in 10.0 mi NW 5.8 mph - N/A   Clear
7:53 PM 50.0 °F - 36.0 °F 59% 30.00 in 10.0 mi SSE 5.8 mph - N/A   Clear
8:53 PM 48.0 °F - 39.9 °F 74% 30.04 in 10.0 mi South 8.1 mph - N/A   Clear
9:53 PM 46.0 °F 43.1 °F 37.0 °F 71% 30.04 in 10.0 mi South 5.8 mph - N/A   Clear
10:53 PM 48.9 °F - 28.9 °F 46% 30.04 in 10.0 mi SSW 5.8 mph - N/A   Clear
11:53 PM 46.0 °F 41.0 °F 28.9 °F 51% 30.05 in 10.0 mi SW 10.4 mph - N/A   Clear